STARLINK-5921 (55926 NORAD) Tracking and Keplerian Element Data

This shows tracking and keplerian element data for the satellite.

Feedback or suggestion? Click here.




ElementValue
Catalog55926
NameSTARLINK-5921
Epoch Orbit794
Epoch Day126.16791639
Epoch Year2023
RAAN42.1859
Inclination70.0006
Eccentricity0.0003766
Argument of Perigee262.8466
Mean Anonmoly97.2302
Mean Motion15.69929849
Decay Rate3.66E-05
L11 55926U 23037N 23126.16791639 .00003660 00000+0 32186-4 0 9996
L22 55926 70.0006 42.1859 0003766 262.8466 97.2302 15.69929849 7942



Live tracking and technical data element details for STARLINK-5921 (NORAD 55926). STARLINK-5921 can be tracked NOW for your location showing map with azimuth and elevation plus other details from your city location.







IsCatalogInMostPopularTable: catalog: 55926, numindb: 8
Update: records affected: 1



GetName: 55926 STARLINK-5921

Hit Count: updated at: Tue, 06 Jun 2023 03:02:10 GMT